This is the latest recevied weather packets stored in our database for station/object IU2PLZ-12. If no packets are shown the sender has not sent any weather packets the latest 10 day(s).
| Time | Temp. | Humidity | Pressure | Rain* | Wind** | Luminosity | Snow |
|---|---|---|---|---|---|---|---|
| 1777638702 | 28.33° C | 20% | 1008.9 hPa | - | - | - | - |
| 1777638299 | 28.33° C | 21% | 1009 hPa | - | - | - | - |
| 1777637802 | 28.33° C | 21% | 1009 hPa | - | - | - | - |
| 1777636902 | 27.22° C | 21% | 1009.1 hPa | - | - | - | - |
| 1777636001 | 27.22° C | 21% | 1009.3 hPa | - | - | - | - |
| 1777635101 | 26.11° C | 21% | 1009.5 hPa | - | - | - | - |
| 1777634201 | 25.56° C | 21% | 1009.7 hPa | - | - | - | - |
| 1777633301 | 25° C | 21% | 1009.8 hPa | - | - | - | - |
| 1777632400 | 25° C | 22% | 1009.8 hPa | - | - | - | - |
| 1777631500 | 25° C | 22% | 1010 hPa | - | - | - | - |
| 1777630600 | 25° C | 21% | 1010.1 hPa | - | - | - | - |
| 1777629700 | 26.11° C | 20% | 1010.2 hPa | - | - | - | - |
| 1777628800 | 26.67° C | 20% | 1010.2 hPa | - | - | - | - |
| 1777627899 | 27.22° C | 19% | 1010.3 hPa | - | - | - | - |
| 1777626999 | 26.67° C | 19% | 1010.3 hPa | - | - | - | - |
| 1777626099 | 25.56° C | 20% | 1010.3 hPa | - | - | - | - |
| 1777625199 | 27.22° C | 20% | 1010.4 hPa | - | - | - | - |
| 1777624299 | 27.22° C | 19% | 1010.2 hPa | - | - | - | - |
| 1777623399 | 26.67° C | 20% | 1010.3 hPa | - | - | - | - |
| 1777622498 | 27.22° C | 20% | 1010.2 hPa | - | - | - | - |
| 1777621598 | 26.11° C | 20% | 1010.1 hPa | - | - | - | - |
| 1777620698 | 27.22° C | 21% | 1009.9 hPa | - | - | - | - |
| 1777619798 | 26.11° C | 22% | 1009.9 hPa | - | - | - | - |
| 1777618898 | 23.89° C | 25% | 1009.8 hPa | - | - | - | - |
| 1777617997 | 17.22° C | 35% | 1009.8 hPa | - | - | - | - |
* Rain since midnight (hover to see other rain measurements)
** Current wind speed in m/s (hover to see current wind gust speed)